Location: Knobs
(40.8333°S, 175.2333°E)
Time: 01:36:46
(UTC+00:00)

Meteor 1-31 Rocket - Pass Details

Date: 12 June 2024
Orbit: 494 x 513 km, 97.7° (Epoch: 22 July)

Event Time Altitude Azimuth Distance (km) Brightness Sun altitude
Rises 17:56:20 0° 25° (NNE) 2,625 6.9 -19.1°
Reaches altitude 10° 17:58:26 10° 30° (NNE) 1,751 6.0 -18.7°
Maximum altitude 18:02:07 52° 106° (ESE) 658 3.5 -18.0°
Drops below altitude 10° 18:05:52 10° 182° (S) 1,785 5.2 -17.3°
Enters shadow 18:06:37 - 184° (S) 2,092 5.6 -17.2°
